Alicante, Spain

9:00 AM CET on February 08, 2016 (GMT +0100)
Alicante

Weather History for LEAL - January, 2013

Change the Weather History Date:

Thursday, January 24, 2013

  Actual Average Record
Temperature  
Mean Temperature 54 °F -  
Max Temperature 64 °F 61 °F 68 °F (2001)
Min Temperature 43 °F 43 °F 35 °F (2000)
Degree Days  
Heating Degree Days 12    
Growing Degree Days 4 (Base 50)    
Moisture  
Dew Point 34 °F    
Average Humidity 44    
Maximum Humidity 76    
Minimum Humidity 19    
Precipitation  
Precipitation 0.00 in - - ()
Sea Level Pressure  
Sea Level Pressure 29.82 in    
Wind  
Wind Speed 14 mph ()    
Max Wind Speed 41 mph    
Max Gust Speed 56 mph    
Visibility 6.6 miles    
Events      
Averages and records for this station are not official NWS values.
T = Trace of Precipitation, MM = Missing Value Source: Averaged Metar Reports

Daily Weather History Graph

Daily Weather History Graph

Search for Another Location

Airport or City:

Trip Planner

Search our weather history database for the weather conditions in past years. The results will help you decide how hot, cold, wet, or windy it might be!

Date:

Astronomy

Jan. 24, 2013 Rise Set
Actual Time 8:13 AM CET 6:15 PM CET
Civil Twilight 7:44 AM CET 6:44 PM CET
Nautical Twilight 7:12 AM CET 7:16 PM CET
Astronomical Twilight 6:41 AM CET 7:47 PM CET
Moon 4:05 PM CET (1/24) 5:59 AM CET (1/24)
Length of Visible Light 10h 59m
Length of Day
10h 02m
Waxing Gibbous, 93% of the Moon is Illuminated
Jan 24
Waxing Gibbous
Jan 27
Full
Feb 3
Last Quarter
Feb 10
New
Feb 17
First Quarter

Hourly Weather History & Observations

Time (CET) Temp. Windchill Dew Point Humidity Pressure Visibility Wind Dir Wind Speed Gust Speed Precip Events Conditions
12:00 AM 50.0 °F - 33.8 °F 54% 29.98 in 6.2 mi West 11.5 mph - N/A   Partly Cloudy
12:30 AM 48.2 °F - 33.8 °F 58% 29.95 in 6.2 mi SW 8.1 mph - N/A   Partly Cloudy
1:00 AM 47 °F - 31 °F 42% 29.96 in 12 mi SW 6.9 mph - -   Scattered Clouds
1:00 AM 48.2 °F - 33.8 °F 58% 29.95 in 6.2 mi SW 6.9 mph - N/A   Partly Cloudy
1:30 AM 46.4 °F - 32.0 °F 57% 29.92 in 6.2 mi Variable 2.3 mph - N/A   Partly Cloudy
2:00 AM 46.4 °F - 33.8 °F 62% 29.89 in 6.2 mi Variable 2.3 mph - N/A   Partly Cloudy
2:30 AM 48.2 °F - 33.8 °F 58% 29.89 in 6.2 mi SW 3.5 mph - N/A   Partly Cloudy
3:00 AM 46.4 °F - 33.8 °F 62% 29.89 in 6.2 mi Variable 1.2 mph - N/A   Partly Cloudy
3:30 AM 46.4 °F 45.2 °F 35.6 °F 66% 29.86 in 6.2 mi SW 3.5 mph - N/A   Partly Cloudy
4:00 AM 46.4 °F 42.4 °F 35.6 °F 66% 29.83 in 6.2 mi SW 8.1 mph - N/A   Partly Cloudy
4:30 AM 48.2 °F - 35.6 °F 62% 29.83 in 6.2 mi SW 10.4 mph - N/A   Partly Cloudy
5:00 AM 46.4 °F 42.4 °F 35.6 °F 66% 29.80 in 6.2 mi SSW 8.1 mph - N/A   Partly Cloudy
5:30 AM 44.6 °F 43.1 °F 35.6 °F 71% 29.80 in 6.2 mi SSW 3.5 mph - N/A   Partly Cloudy
6:00 AM 42.8 °F - 35.6 °F 76% 29.80 in 6.2 mi Variable 1.2 mph - N/A   Partly Cloudy
6:30 AM 46.4 °F 43.5 °F 39.2 °F 76% 29.77 in 6.2 mi South 5.8 mph - N/A   Partly Cloudy
7:00 AM 46 °F - 37 °F 62% 29.77 in 12 mi SSW 6.9 mph - -   Scattered Clouds
7:00 AM 46.4 °F 42.9 °F 39.2 °F 76% 29.74 in 6.2 mi SSW 6.9 mph - N/A   Partly Cloudy
7:30 AM 48.2 °F - 37.4 °F 66% 29.74 in 6.2 mi SSW 8.1 mph 19.6 mph N/A   Partly Cloudy
8:00 AM 55.4 °F - 39.2 °F 54% 29.74 in 6.2 mi West 17.3 mph 31.1 mph N/A   Partly Cloudy
8:30 AM 55.4 °F - 39.2 °F 54% 29.74 in 6.2 mi WSW 15.0 mph 26.5 mph N/A   Partly Cloudy
9:00 AM 57.2 °F - 39.2 °F 51% 29.71 in 6.2 mi WSW 11.5 mph - N/A   Partly Cloudy
9:30 AM 59.0 °F - 39.2 °F 48% 29.74 in 6.2 mi West 16.1 mph 29.9 mph N/A   Partly Cloudy
10:00 AM 60.8 °F - 39.2 °F 45% 29.71 in 6.2 mi West 25.3 mph 49.5 mph N/A   Partly Cloudy
10:30 AM 62.6 °F - 39.2 °F 42% 29.71 in 6.2 mi WNW 34.5 mph 49.5 mph N/A   Partly Cloudy
11:00 AM 62.6 °F - 39.2 °F 42% 29.71 in 6.2 mi WNW 38.0 mph 56.4 mph N/A   Partly Cloudy
11:30 AM 64.4 °F - 35.6 °F 34% 29.74 in 6.2 mi WNW 41.4 mph 55.2 mph N/A   Partly Cloudy
12:00 PM 64.4 °F - 37.4 °F 37% 29.77 in 6.2 mi WNW 34.5 mph 52.9 mph N/A   Partly Cloudy
12:30 PM 64.4 °F - 37.4 °F 37% 29.80 in 6.2 mi WNW 34.5 mph 52.9 mph N/A   Partly Cloudy
1:00 PM 64 °F - 32 °F 19% 29.81 in 31 mi WNW 33.4 mph - -   Scattered Clouds
1:00 PM 64.4 °F - 35.6 °F 34% 29.80 in 6.2 mi WNW 33.4 mph 51.8 mph N/A   Partly Cloudy
1:30 PM 64.4 °F - 33.8 °F 32% 29.80 in 6.2 mi WNW 28.8 mph 43.7 mph N/A   Partly Cloudy
2:00 PM 64.4 °F - 32.0 °F 30% 29.77 in 6.2 mi WNW 32.2 mph 46.0 mph N/A   Partly Cloudy
2:30 PM 64.4 °F - 32.0 °F 30% 29.77 in 6.2 mi WNW 26.5 mph 41.4 mph N/A   Partly Cloudy
3:00 PM 64.4 °F - 32.0 °F 30% 29.77 in 6.2 mi WNW 28.8 mph 47.2 mph N/A   Partly Cloudy
3:30 PM 64.4 °F - 32.0 °F 30% 29.77 in 6.2 mi WNW 28.8 mph 46.0 mph N/A   Partly Cloudy
4:00 PM 64.4 °F - 32.0 °F 30% 29.80 in 6.2 mi WNW 29.9 mph 46.0 mph N/A   Partly Cloudy
4:30 PM 64.4 °F - 32.0 °F 30% 29.80 in 6.2 mi WNW 29.9 mph 46.0 mph N/A   Partly Cloudy
5:00 PM 62.6 °F - 32.0 °F 32% 29.80 in 6.2 mi WNW 23.0 mph 38.0 mph N/A   Partly Cloudy
5:30 PM 62.6 °F - 30.2 °F 30% 29.80 in 6.2 mi WNW 27.6 mph 39.1 mph N/A   Partly Cloudy
6:00 PM 60.8 °F - 30.2 °F 31% 29.83 in 6.2 mi WNW 24.2 mph 39.1 mph N/A   Partly Cloudy
6:30 PM 59.0 °F - 30.2 °F 34% 29.83 in - WNW 24.2 mph - N/A   Clear
7:00 PM 59 °F - 28 °F 19% 29.85 in 16 mi WNW 23.0 mph - -   Scattered Clouds
7:00 PM 59.0 °F - 30.2 °F 34% 29.83 in 6.2 mi WNW 21.9 mph 33.4 mph N/A   Partly Cloudy
7:30 PM 59.0 °F - 30.2 °F 34% 29.86 in 6.2 mi WNW 21.9 mph 35.7 mph N/A   Partly Cloudy
8:00 PM 59.0 °F - 30.2 °F 34% 29.86 in 6.2 mi WNW 23.0 mph 35.7 mph N/A   Partly Cloudy
8:30 PM 59.0 °F - 32.0 °F 36% 29.89 in 6.2 mi WNW 18.4 mph 29.9 mph N/A   Partly Cloudy
9:00 PM 59.0 °F - 28.4 °F 31% 29.89 in 6.2 mi NW 19.6 mph 31.1 mph N/A   Partly Cloudy
9:30 PM 59.0 °F - 28.4 °F 31% 29.89 in 6.2 mi NW 23.0 mph 38.0 mph N/A   Partly Cloudy
10:00 PM 59.0 °F - 26.6 °F 29% 29.92 in 6.2 mi NW 15.0 mph 26.5 mph N/A   Partly Cloudy
10:30 PM 59.0 °F - 26.6 °F 29% 29.92 in 6.2 mi NNW 19.6 mph 32.2 mph N/A   Partly Cloudy
11:00 PM 59.0 °F - 26.6 °F 29% 29.92 in 6.2 mi NNW 15.0 mph 26.5 mph N/A   Partly Cloudy
11:30 PM 57.2 °F - 24.8 °F 29% 29.92 in 6.2 mi WNW 12.7 mph - N/A   Partly Cloudy